This is the latest recevied weather packets stored in our database for station/object KD4MBW. If no packets are shown the sender has not sent any weather packets the latest 10 day(s).
| Time | Temp. | Humidity | Pressure | Rain* | Wind** | Luminosity | Snow |
|---|---|---|---|---|---|---|---|
| 1777286844 | 16.67° C | 99% | 1015.5 hPa | 0 mm | - | 0 W/m² | - |
| 1777286542 | 16.67° C | 99% | 1015.2 hPa | 0 mm | - | 0 W/m² | - |
| 1777286239 | 16.67° C | 99% | 1015.3 hPa | 0 mm | - | 0 W/m² | - |
| 1777285936 | 16.67° C | 99% | 1014.9 hPa | 0 mm | - | 0 W/m² | - |
| 1777285633 | 16.67° C | 99% | 1015 hPa | 0 mm | - | 0 W/m² | - |
| 1777285331 | 16.67° C | 99% | 1014.8 hPa | 0 mm | - | 0 W/m² | - |
| 1777285027 | 16.67° C | 99% | 1014.9 hPa | 0 mm | - | 0 W/m² | - |
| 1777284725 | 16.67° C | 99% | 1014.8 hPa | 0 mm | - | 0 W/m² | - |
| 1777284422 | 16.67° C | 99% | 1014.8 hPa | 0 mm | - | 0 W/m² | - |
| 1777284118 | 16.67° C | 99% | 1014.8 hPa | 0 mm | - | 0 W/m² | - |
| 1777283815 | 16.67° C | 99% | 1014.7 hPa | 0 mm | - | 0 W/m² | - |
| 1777283513 | 15.56° C | 99% | 1014.8 hPa | 0 mm | - | 0 W/m² | - |
| 1777283212 | 16.11° C | 99% | 1014.9 hPa | 0 mm | - | 0 W/m² | - |
| 1777282909 | 16.11° C | 99% | 1014.6 hPa | 0 mm | - | 0 W/m² | - |
| 1777282604 | 15.56° C | 99% | 1014.8 hPa | 0 mm | - | 0 W/m² | - |
| 1777282300 | 16.11° C | 99% | 1014.8 hPa | 0 mm | - | 0 W/m² | - |
| 1777281999 | 16.11° C | 99% | 1014.8 hPa | 0 mm | - | 0 W/m² | - |
| 1777281696 | 16.67° C | 99% | 1014.6 hPa | 0 mm | - | 0 W/m² | - |
| 1777281392 | 16.67° C | 99% | 1014.6 hPa | 0 mm | - | 0 W/m² | - |
| 1777281089 | 16.67° C | 99% | 1014.7 hPa | 0 mm | - | 0 W/m² | - |
| 1777280786 | 17.22° C | 99% | 1014.6 hPa | 0 mm | - | 0 W/m² | - |
| 1777280483 | 16.67° C | 99% | 1014.8 hPa | 0 mm | - | 0 W/m² | - |
| 1777280180 | 16.67° C | 99% | 1014.6 hPa | 0 mm | - | 0 W/m² | - |
| 1777279875 | 17.22° C | 99% | 1014.4 hPa | 0 mm | - | 0 W/m² | - |
| 1777279574 | 17.22° C | 99% | 1014.4 hPa | 0 mm | - | 0 W/m² | - |
* Rain latest hour (hover to see other rain measurements)
** Current wind speed in m/s (hover to see current wind gust speed)